Weather History for Lebanon, NH

Change the Weather History Date:

Thursday, October 4, 2012

  Actual Average Record
Temperature  
Mean Temperature 62 °F -  
Max Temperature 64 °F 61 °F 80 °F (1931)
Min Temperature 60 °F 42 °F 24 °F (1945)
Degree Days  
Heating Degree Days 3    
Growing Degree Days 12 (Base 50)    
Moisture  
Dew Point 59 °F    
Average Humidity 90    
Maximum Humidity 94    
Minimum Humidity 77    
Precipitation  
Precipitation 0.03 in - - ()
Sea Level Pressure  
Sea Level Pressure 30.10 in    
Wind  
Wind Speed 1 mph (NE)    
Max Wind Speed 5 mph    
Max Gust Speed -    
Visibility 7 miles    
Events Rain    
Averages and records for this station are not official NWS values.
T = Trace of Precipitation, MM = Missing Value Source: NWS Daily Summary

Daily Weather History Graph

Daily Weather History Graph

Search for Another Location

Airport:

Trip Planner

Search our weather history database for the weather conditions in past years. The results will help you decide how hot, cold, wet, or windy it might be!

Date:

Astronomy

Oct. 04, 2012 Rise Set
Actual Time 6:50 AM EDT 6:24 PM EDT
Civil Twilight 6:22 AM EDT 6:52 PM EDT
Nautical Twilight 5:48 AM EDT 7:25 PM EDT
Astronomical Twilight 5:15 AM EDT 7:59 PM EDT
Moon 8:49 PM EDT (10/4) 11:13 AM EDT (10/4)
Length of Visible Light 12h 30m
Length of Day
11h 33m
Waning Gibbous, 82% of the Moon is Illuminated
Oct 4
Waning Gibbous
Oct 8
Last Quarter
Oct 15
New
Oct 21
First Quarter
Oct 29
Full

Hourly Weather History & Observations

Time (EDT) Temp. Dew Point Humidity Pressure Visibility Wind Dir Wind Speed Gust Speed Precip Events Conditions
12:39 AM 62.6 °F 57.2 °F 82% 30.14 in 10.0 mi NE 4.6 mph - N/A   Overcast
12:53 AM 62.1 °F 57.9 °F 86% 30.13 in 10.0 mi NE 4.6 mph - N/A   Overcast
1:53 AM 62.1 °F 57.9 °F 86% 30.12 in 10.0 mi Calm Calm - N/A   Overcast
2:53 AM 61.0 °F 59.0 °F 93% 30.12 in 6.0 mi Calm Calm - N/A   Overcast
3:35 AM 60.8 °F 57.2 °F 88% 30.14 in 8.0 mi Calm Calm - N/A   Overcast
3:53 AM 61.0 °F 59.0 °F 93% 30.12 in 8.0 mi Calm Calm - N/A   Overcast
4:53 AM 61.0 °F 57.9 °F 90% 30.13 in 8.0 mi NE 3.5 mph - N/A   Overcast
5:11 AM 60.8 °F 57.2 °F 88% 30.14 in 8.0 mi NE 3.5 mph - N/A   Overcast
5:53 AM 61.0 °F 57.9 °F 90% 30.13 in 10.0 mi Calm Calm - N/A   Overcast
6:53 AM 61.0 °F 59.0 °F 93% 30.12 in 10.0 mi Calm Calm - 0.00 in Rain Light Rain
7:53 AM 61.0 °F 57.9 °F 90% 30.13 in 10.0 mi Calm Calm - 0.01 in   Overcast
8:53 AM 62.1 °F 59.0 °F 90% 30.14 in 10.0 mi Calm Calm - 0.00 in   Overcast
9:09 AM 62.6 °F 59.0 °F 88% 30.14 in 10.0 mi Calm Calm - N/A   Overcast
9:36 AM 62.6 °F 59.0 °F 88% 30.15 in 1.8 mi Calm Calm - N/A   Overcast
9:53 AM 62.1 °F 59.0 °F 90% 30.13 in 1.5 mi Calm Calm - N/A   Overcast
10:13 AM 62.6 °F 59.0 °F 88% 30.14 in 2.5 mi Calm Calm - N/A   Overcast
10:28 AM 62.6 °F 60.8 °F 94% 30.14 in 2.0 mi Calm Calm - N/A   Overcast
10:50 AM 62.6 °F 60.8 °F 94% 30.15 in 4.0 mi Calm Calm - N/A   Overcast
10:53 AM 62.1 °F 60.1 °F 93% 30.14 in 3.0 mi Calm Calm - N/A   Overcast
10:58 AM 62.6 °F 60.8 °F 94% 30.15 in 2.5 mi Calm Calm - N/A   Overcast
11:18 AM 62.6 °F 60.8 °F 94% 30.14 in 5.0 mi Calm Calm - N/A   Overcast
11:47 AM 62.6 °F 60.8 °F 94% 30.13 in 2.5 mi Calm Calm - N/A   Overcast
11:53 AM 62.1 °F 60.1 °F 93% 30.12 in 1.8 mi Calm Calm - N/A   Overcast
12:53 PM 63.0 °F 60.1 °F 90% 30.09 in 3.0 mi Calm Calm - 0.02 in Rain Light Rain
1:02 PM 62.6 °F 60.8 °F 94% 30.11 in 2.0 mi Calm Calm - 0.00 in Rain Light Rain
1:12 PM 64.4 °F 60.8 °F 88% 30.11 in 4.0 mi Calm Calm - 0.00 in   Overcast
1:53 PM 64.0 °F 60.1 °F 87% 30.06 in 4.0 mi NNE 3.5 mph - 0.00 in Rain Light Rain
2:22 PM 64.4 °F 60.8 °F 88% 30.05 in 10.0 mi Variable 3.5 mph - 0.00 in Rain Light Rain
2:53 PM 64.0 °F 60.1 °F 87% 30.06 in 10.0 mi NW 3.5 mph - 0.00 in Rain Light Rain
3:53 PM 64.9 °F 60.1 °F 84% 30.04 in 10.0 mi Calm Calm - 0.00 in   Overcast
4:53 PM 64.9 °F 61.0 °F 87% 30.03 in 10.0 mi SSE 3.5 mph - N/A   Overcast
5:53 PM 64.9 °F 61.0 °F 87% 30.03 in 10.0 mi Calm Calm - 0.00 in   Overcast
6:53 PM 63.0 °F 60.1 °F 90% 30.01 in 10.0 mi NNE 3.5 mph - N/A   Overcast
7:53 PM 63.0 °F 60.1 °F 90% 30.02 in 10.0 mi Calm Calm - N/A   Overcast
8:53 PM 63.0 °F 60.1 °F 90% 30.01 in 10.0 mi Calm Calm - N/A   Overcast
9:50 PM 60.8 °F 53.6 °F 77% 30.15 in 10.0 mi Calm Calm - N/A   Scattered Clouds
9:53 PM 62.1 °F 60.1 °F 93% 30.02 in 10.0 mi Calm Calm - N/A   Overcast
10:53 PM 62.1 °F 60.1 °F 93% 30.03 in 8.0 mi Calm Calm - N/A   Overcast
11:53 PM 61.0 °F 59.0 °F 93% 30.01 in 8.0 mi Calm Calm - N/A   Overcast